• în România
  • Lista ţărilor
  • Pe 7 zile
  • Temperatura apei
  • Hartă satelitară
  • Meteo pe hartă
  • Widget-uri
  • user-avatar
    Intrare

    Meteo pe oră la Grebocin

    Astăzi, 23 Octombrie, Marţi

    Timp Temperatura Precipitaţii Vânt Presiune Umiditate
    00:00 +7°C° 0.1 mm 4 m/s 747 mmHg 78%
    01:00 +7°C° 0 mm 4 m/s 747 mmHg 80%
    02:00 +7°C° 0 mm 4 m/s 747 mmHg 83%
    03:00 +6°C° 0 mm 4 m/s 747 mmHg 85%
    04:00 +5°C° 0 mm 3 m/s 746 mmHg 87%
    05:00 +5°C° 0 mm 3 m/s 746 mmHg 88%
    06:00 +4°C° 0 mm 3 m/s 745 mmHg 89%
    07:00 +4°C° 0 mm 4 m/s 745 mmHg 89%
    08:00 +5°C° 0 mm 5 m/s 744 mmHg 78%
    09:00 +7°C° 0 mm 5 m/s 743 mmHg 68%
    10:00 +8°C° 0 mm 6 m/s 742 mmHg 57%
    11:00 +8°C° 0 mm 7 m/s 741 mmHg 56%
    12:00 +9°C° 0 mm 7 m/s 740 mmHg 55%
    13:00 +9°C° 0 mm 8 m/s 739 mmHg 53%
    14:00 +9°C° 0.4 mm 8 m/s 738 mmHg 58%
    15:00 +7°C° 0.4 mm 9 m/s 737 mmHg 62%
    16:00 +7°C° 0.4 mm 9 m/s 736 mmHg 66%
    17:00 +7°C° 0.6 mm 9 m/s 735 mmHg 70%
    18:00 +7°C° 0.6 mm 10 m/s 734 mmHg 74%
    19:00 +6°C° 0.6 mm 10 m/s 733 mmHg 78%
    20:00 +7°C° 0.7 mm 10 m/s 732 mmHg 79%
    21:00 +8°C° 0.7 mm 10 m/s 732 mmHg 80%
    22:00 +8°C° 0.7 mm 10 m/s 731 mmHg 81%
    23:00 +8°C° 1.5 mm 9 m/s 730 mmHg 80%

    Mâine, 24 Octombrie, Miercuri

    Timp Temperatura Precipitaţii Vânt Presiune Umiditate
    00:00 +8°C° 1.5 mm 9 m/s 730 mmHg 80%
    01:00 +7°C° 1.5 mm 8 m/s 729 mmHg 80%
    02:00 +7°C° 0.4 mm 8 m/s 729 mmHg 78%
    03:00 +6°C° 0.4 mm 8 m/s 729 mmHg 76%
    04:00 +6°C° 0.4 mm 8 m/s 728 mmHg 74%
    05:00 +5°C° 0.2 mm 9 m/s 729 mmHg 71%
    06:00 +5°C° 0.2 mm 9 m/s 729 mmHg 69%
    07:00 +3°C° 0.2 mm 10 m/s 729 mmHg 66%
    08:00 +3°C° 0.2 mm 10 m/s 730 mmHg 63%
    09:00 +5°C° 0.2 mm 10 m/s 731 mmHg 59%
    10:00 +4°C° 0.2 mm 11 m/s 731 mmHg 55%
    11:00 +4°C° 0.1 mm 11 m/s 732 mmHg 51%
    12:00 +4°C° 0.1 mm 11 m/s 732 mmHg 47%
    13:00 +6°C° 0.1 mm 11 m/s 733 mmHg 44%
    14:00 +5°C° 0 mm 10 m/s 733 mmHg 45%
    15:00 +5°C° 0 mm 9 m/s 734 mmHg 46%
    16:00 +5°C° 0 mm 8 m/s 734 mmHg 48%
    17:00 +4°C° 0 mm 8 m/s 735 mmHg 50%
    18:00 +4°C° 0 mm 7 m/s 736 mmHg 52%
    19:00 +3°C° 0 mm 7 m/s 736 mmHg 55%
    20:00 +3°C° 0 mm 7 m/s 737 mmHg 57%
    21:00 +3°C° 0 mm 7 m/s 738 mmHg 58%
    22:00 +2°C° 0 mm 7 m/s 738 mmHg 60%
    23:00 +2°C° 0 mm 6 m/s 738 mmHg 62%

    Poimâine, 25 Octombrie, Joi

    Timp Temperatura Precipitaţii Vânt Presiune Umiditate
    00:00 +2°C° 0 mm 6 m/s 739 mmHg 64%
    01:00 +2°C° 0 mm 6 m/s 739 mmHg 66%
    02:00 +1°C° 0 mm 6 m/s 739 mmHg 70%
    03:00 +1°C° 0 mm 5 m/s 739 mmHg 73%
    04:00 +1°C° 0 mm 5 m/s 739 mmHg 77%
    05:00 +1°C° 0 mm 5 m/s 739 mmHg 77%
    06:00 +1°C° 0 mm 5 m/s 738 mmHg 77%
    07:00 +1°C° 0 mm 5 m/s 738 mmHg 76%
    08:00 +2°C° 0.6 mm 5 m/s 738 mmHg 78%
    09:00 +3°C° 0.6 mm 5 m/s 737 mmHg 79%
    10:00 +3°C° 0.6 mm 5 m/s 736 mmHg 81%
    11:00 +5°C° 0.8 mm 6 m/s 736 mmHg 82%
    12:00 +8°C° 0.8 mm 7 m/s 735 mmHg 84%
    13:00 +9°C° 0.8 mm 8 m/s 734 mmHg 85%
    14:00 +9°C° 0.3 mm 8 m/s 734 mmHg 85%
    15:00 +9°C° 0.3 mm 8 m/s 734 mmHg 85%
    16:00 +9°C° 0.3 mm 8 m/s 734 mmHg 84%
    17:00 +9°C° 0.2 mm 8 m/s 734 mmHg 84%
    18:00 +9°C° 0.2 mm 7 m/s 735 mmHg 83%
    19:00 +9°C° 0.2 mm 7 m/s 735 mmHg 83%
    20:00 +9°C° 0.4 mm 7 m/s 735 mmHg 83%
    21:00 +8°C° 0.4 mm 6 m/s 736 mmHg 84%
    22:00 +8°C° 0.4 mm 5 m/s 736 mmHg 84%
    23:00 +8°C° 0.2 mm 5 m/s 736 mmHg 84%

    26 Octombrie, Vineri

    Timp Temperatura Precipitaţii Vânt Presiune Umiditate
    00:00 +7°C° 0.2 mm 5 m/s 736 mmHg 84%
    01:00 +7°C° 0.2 mm 4 m/s 736 mmHg 85%
    02:00 +7°C° 0.1 mm 4 m/s 737 mmHg 86%
    03:00 +7°C° 0.1 mm 4 m/s 737 mmHg 86%
    04:00 +7°C° 0.1 mm 4 m/s 737 mmHg 87%
    05:00 +7°C° 0.1 mm 4 m/s 737 mmHg 87%
    06:00 +6°C° 0.1 mm 4 m/s 737 mmHg 87%
    07:00 +6°C° 0.1 mm 4 m/s 737 mmHg 88%
    08:00 +7°C° 0 mm 4 m/s 737 mmHg 81%
    09:00 +8°C° 0 mm 4 m/s 737 mmHg 74%
    10:00 +11°C° 0 mm 4 m/s 737 mmHg 68%
    11:00 +11°C° 0 mm 4 m/s 737 mmHg 66%
    12:00 +12°C° 0 mm 4 m/s 736 mmHg 65%
    13:00 +13°C° 0 mm 4 m/s 736 mmHg 64%
    14:00 +13°C° 0 mm 4 m/s 735 mmHg 66%
    15:00 +12°C° 0 mm 4 m/s 735 mmHg 69%
    16:00 +11°C° 0 mm 4 m/s 734 mmHg 72%
    17:00 +11°C° 0 mm 4 m/s 734 mmHg 75%
    18:00 +10°C° 0 mm 4 m/s 734 mmHg 77%
    19:00 +10°C° 0 mm 4 m/s 734 mmHg 80%
    20:00 +8°C° 0 mm 4 m/s 734 mmHg 81%
    21:00 +8°C° 0 mm 4 m/s 734 mmHg 82%
    22:00 +8°C° 0 mm 4 m/s 734 mmHg 83%
    23:00 +8°C° 0 mm 4 m/s 734 mmHg 83%

    27 Octombrie, Sâmbătă

    Timp Temperatura Precipitaţii Vânt Presiune Umiditate
    00:00 +8°C° 0 mm 4 m/s 734 mmHg 83%
    01:00 +8°C° 0 mm 5 m/s 734 mmHg 83%
    02:00 +7°C° 0 mm 5 m/s 734 mmHg 82%
    03:00 +7°C° 0 mm 5 m/s 734 mmHg 81%
    04:00 +7°C° 0 mm 5 m/s 734 mmHg 80%
    05:00 +7°C° 0 mm 4 m/s 735 mmHg 79%
    06:00 +6°C° 0 mm 4 m/s 735 mmHg 77%
    07:00 +6°C° 0 mm 4 m/s 735 mmHg 76%
    08:00 +7°C° 0 mm 4 m/s 735 mmHg 69%
    09:00 +7°C° 0 mm 5 m/s 736 mmHg 62%
    10:00 +8°C° 0 mm 5 m/s 736 mmHg 55%
    11:00 +8°C° 0 mm 5 m/s 736 mmHg 53%
    12:00 +8°C° 0 mm 5 m/s 736 mmHg 51%
    13:00 +10°C° 0 mm 4 m/s 736 mmHg 49%
    14:00 +9°C° 0 mm 3 m/s 736 mmHg 52%
    15:00 +9°C° 0 mm 3 m/s 737 mmHg 54%
    16:00 +8°C° 0 mm 2 m/s 737 mmHg 56%
    17:00 +8°C° 0 mm 2 m/s 737 mmHg 58%
    18:00 +9°C° 0 mm 1 m/s 737 mmHg 59%
    19:00 +8°C° 0 mm 1 m/s 738 mmHg 61%
    20:00 +8°C° 0.1 mm 1 m/s 738 mmHg 63%
    21:00 +8°C° 0.1 mm 1 m/s 738 mmHg 64%
    22:00 +8°C° 0.1 mm 1 m/s 738 mmHg 66%
    23:00 +7°C° 0.2 mm 1 m/s 738 mmHg 69%

    28 Octombrie, Duminică

    Timp Temperatura Precipitaţii Vânt Presiune Umiditate
    00:00 +6°C° 0.2 mm 2 m/s 738 mmHg 72%
    01:00 +6°C° 0.2 mm 2 m/s 738 mmHg 75%
    02:00 +6°C° 0.4 mm 2 m/s 738 mmHg 77%
    03:00 +4°C° 0.4 mm 3 m/s 738 mmHg 79%
    04:00 +4°C° 0.4 mm 3 m/s 738 mmHg 82%
    05:00 +4°C° 0.3 mm 3 m/s 738 mmHg 82%
    06:00 +4°C° 0.3 mm 4 m/s 738 mmHg 83%
    07:00 +4°C° 0.3 mm 4 m/s 738 mmHg 84%
    08:00 +3°C° 0.3 mm 5 m/s 738 mmHg 84%
    09:00 +3°C° 0.3 mm 5 m/s 737 mmHg 83%
    10:00 +4°C° 0.3 mm 6 m/s 737 mmHg 83%
    11:00 +4°C° 0.7 mm 6 m/s 737 mmHg 84%
    12:00 +4°C° 0.7 mm 6 m/s 736 mmHg 86%
    13:00 +4°C° 0.7 mm 6 m/s 736 mmHg 87%
    14:00 +5°C° 0.8 mm 5 m/s 735 mmHg 89%
    15:00 +5°C° 0.8 mm 5 m/s 735 mmHg 90%
    16:00 +5°C° 0.8 mm 5 m/s 735 mmHg 92%
    17:00 +5°C° 0.9 mm 4 m/s 735 mmHg 92%
    18:00 +5°C° 0.9 mm 4 m/s 735 mmHg 93%
    19:00 +5°C° 0.9 mm 4 m/s 734 mmHg 94%
    20:00 +5°C° 0.8 mm 4 m/s 734 mmHg 94%
    21:00 +6°C° 0.8 mm 4 m/s 734 mmHg 95%
    22:00 +6°C° 0.8 mm 4 m/s 734 mmHg 95%
    23:00 +7°C° 0.4 mm 3 m/s 733 mmHg 95%

    29 Octombrie, Luni

    Timp Temperatura Precipitaţii Vânt Presiune Umiditate
    00:00 +7°C° 0.4 mm 3 m/s 733 mmHg 95%
    01:00 +8°C° 0.4 mm 3 m/s 732 mmHg 95%
    02:00 +8°C° 0.1 mm 3 m/s 732 mmHg 94%
    03:00 +9°C° 0.1 mm 3 m/s 731 mmHg 93%
    04:00 +9°C° 0.1 mm 3 m/s 731 mmHg 92%
    05:00 +10°C° 0.1 mm 3 m/s 731 mmHg 90%
    06:00 +10°C° 0.1 mm 3 m/s 731 mmHg 89%
    07:00 +10°C° 0.1 mm 3 m/s 730 mmHg 88%
    08:00 +11°C° 0.3 mm 3 m/s 730 mmHg 84%
    09:00 +12°C° 0.3 mm 4 m/s 730 mmHg 81%
    10:00 +13°C° 0.3 mm 4 m/s 730 mmHg 77%
    11:00 +14°C° 0.2 mm 4 m/s 730 mmHg 78%
    12:00 +14°C° 0.2 mm 4 m/s 730 mmHg 78%
    13:00 +14°C° 0.2 mm 4 m/s 730 mmHg 79%
    14:00 +14°C° 0.1 mm 4 m/s 730 mmHg 80%
    15:00 +13°C° 0.1 mm 3 m/s 730 mmHg 82%
    16:00 +13°C° 0.1 mm 3 m/s 730 mmHg 84%
    17:00 +13°C° 0 mm 3 m/s 730 mmHg 86%
    18:00 +13°C° 0 mm 3 m/s 730 mmHg 87%
    19:00 +12°C° 0 mm 3 m/s 731 mmHg 89%
    20:00 +12°C° 0 mm 3 m/s 731 mmHg 89%
    21:00 +12°C° 0 mm 3 m/s 731 mmHg 90%
    22:00 +12°C° 0 mm 3 m/s 731 mmHg 90%
    23:00 +12°C° 0 mm 3 m/s 730 mmHg 90%
    Arată mai mult